Time,TemperatureF,DewpointF,PressureIn,WindDirection,WindDirectionDegrees,WindSpeedMPH,WindSpeedGustMPH,Humidity,HourlyPrecipIn,Conditions,Clouds,dailyrainin,SolarRadiationWatts/m^2,SoftwareType,DateUTC
2013-06-13 00:02:00,78.0,71.0,-100.00,South,187,3.0,4.0,80,0.00,,,0.00,0.000000,,2013-06-13 05:02:00,
2013-06-13 00:12:00,78.0,71.0,-100.00,South,187,3.0,4.0,80,0.00,,,0.00,0.000000,,2013-06-13 05:12:00,
2013-06-13 00:24:00,78.0,71.0,-100.00,South,187,3.0,4.0,80,0.00,,,0.00,0.000000,,2013-06-13 05:24:00,
2013-06-13 00:32:00,78.0,72.0,-100.00,SSW,200,2.0,5.0,81,0.00,,,0.00,0.000000,,2013-06-13 05:32:00,
2013-06-13 00:53:00,78.0,72.0,-100.00,SSW,200,2.0,5.0,81,0.00,,,0.00,0.000000,,2013-06-13 05:53:00,
2013-06-13 01:02:00,78.0,72.0,-100.00,SSW,200,2.0,5.0,81,0.00,,,0.00,0.000000,,2013-06-13 06:02:00,
2013-06-13 01:11:00,78.0,72.0,-100.00,SSW,200,2.0,5.0,81,0.00,,,0.00,0.000000,,2013-06-13 06:11:00,
2013-06-13 01:22:00,78.0,72.0,-100.00,SSW,200,2.0,5.0,81,0.00,,,0.00,0.000000,,2013-06-13 06:22:00,
2013-06-13 01:32:00,76.0,72.0,-100.00,WSW,245,2.0,4.0,86,0.00,,,0.00,0.000000,,2013-06-13 06:32:00,
2013-06-13 01:52:00,76.0,72.0,-100.00,WSW,245,2.0,4.0,86,0.00,,,0.00,0.000000,,2013-06-13 06:52:00,
2013-06-13 02:01:00,76.0,72.0,-100.00,WSW,245,2.0,4.0,86,0.00,,,0.00,0.000000,,2013-06-13 07:01:00,
2013-06-13 02:12:00,76.0,72.0,-100.00,WSW,245,2.0,4.0,86,0.00,,,0.00,0.000000,,2013-06-13 07:12:00,
2013-06-13 02:22:00,76.0,72.0,-100.00,WSW,245,2.0,4.0,86,0.00,,,0.00,0.000000,,2013-06-13 07:22:00,
2013-06-13 02:32:00,75.0,72.0,-100.00,WSW,248,2.0,4.0,89,0.00,,,0.00,0.000000,,2013-06-13 07:32:00,
2013-06-13 02:52:00,75.0,72.0,-100.00,WSW,248,2.0,4.0,89,0.00,,,0.00,0.000000,,2013-06-13 07:52:00,
2013-06-13 03:01:00,75.0,72.0,-100.00,WSW,248,2.0,4.0,89,0.00,,,0.00,0.000000,,2013-06-13 08:01:00,
2013-06-13 03:11:00,75.0,72.0,-100.00,WSW,248,2.0,4.0,89,0.00,,,0.00,0.000000,,2013-06-13 08:11:00,
2013-06-13 03:22:00,75.0,72.0,-100.00,WSW,248,2.0,4.0,89,0.00,,,0.00,0.000000,,2013-06-13 08:22:00,
2013-06-13 03:32:00,74.0,71.0,-100.00,WSW,251,1.0,4.0,91,0.00,,,0.00,0.000000,,2013-06-13 08:32:00,
2013-06-13 03:52:00,74.0,71.0,-100.00,WSW,251,1.0,4.0,91,0.00,,,0.00,0.000000,,2013-06-13 08:52:00,
2013-06-13 04:02:00,74.0,71.0,-100.00,WSW,251,1.0,4.0,91,0.00,,,0.00,0.000000,,2013-06-13 09:02:00,
2013-06-13 04:12:00,74.0,71.0,-100.00,WSW,251,1.0,4.0,91,0.00,,,0.00,0.000000,,2013-06-13 09:12:00,
2013-06-13 04:22:00,74.0,71.0,-100.00,WSW,251,1.0,4.0,91,0.00,,,0.00,0.000000,,2013-06-13 09:22:00,
2013-06-13 04:32:00,74.0,72.0,-100.00,West,268,1.0,3.0,93,0.00,,,0.00,0.000000,,2013-06-13 09:32:00,
2013-06-13 04:52:00,74.0,72.0,-100.00,West,268,1.0,3.0,93,0.00,,,0.00,0.000000,,2013-06-13 09:52:00,
2013-06-13 05:01:00,74.0,72.0,-100.00,West,268,1.0,3.0,93,0.00,,,0.00,0.000000,,2013-06-13 10:01:00,
2013-06-13 05:11:00,74.0,72.0,-100.00,West,268,1.0,3.0,93,0.00,,,0.00,0.000000,,2013-06-13 10:11:00,
2013-06-13 05:22:00,74.0,72.0,-100.00,West,268,1.0,3.0,93,0.00,,,0.00,0.000000,,2013-06-13 10:22:00,
2013-06-13 05:32:00,74.0,72.0,-100.00,West,265,3.0,3.0,93,0.00,,,0.00,0.000000,,2013-06-13 10:32:00,
2013-06-13 05:53:00,74.0,72.0,-100.00,West,265,3.0,3.0,93,0.00,,,0.00,0.000000,,2013-06-13 10:53:00,
2013-06-13 06:02:00,74.0,72.0,-100.00,West,265,3.0,3.0,93,0.00,,,0.00,0.000000,,2013-06-13 11:02:00,
2013-06-13 06:11:00,74.0,72.0,-100.00,West,265,3.0,3.0,93,0.00,,,0.00,0.000000,,2013-06-13 11:11:00,
2013-06-13 06:23:00,74.0,72.0,-100.00,West,265,3.0,3.0,93,0.00,,,0.00,0.000000,,2013-06-13 11:23:00,
2013-06-13 06:32:00,73.0,71.0,-100.00,WSW,249,2.0,3.0,93,0.00,,,0.00,6.000000,,2013-06-13 11:32:00,
2013-06-13 06:52:00,73.0,71.0,-100.00,WSW,249,2.0,3.0,93,0.00,,,0.00,6.000000,,2013-06-13 11:52:00,
2013-06-13 07:01:00,73.0,71.0,-100.00,WSW,249,2.0,3.0,93,0.00,,,0.00,6.000000,,2013-06-13 12:01:00,
2013-06-13 07:12:00,73.0,71.0,-100.00,WSW,249,2.0,3.0,93,0.00,,,0.00,6.000000,,2013-06-13 12:12:00,
2013-06-13 07:22:00,73.0,71.0,-100.00,WSW,249,2.0,3.0,93,0.00,,,0.00,6.000000,,2013-06-13 12:22:00,
2013-06-13 07:32:00,76.0,74.0,-100.00,SSW,209,1.0,4.0,93,0.00,,,0.00,92.000000,,2013-06-13 12:32:00,
2013-06-13 07:52:00,76.0,74.0,-100.00,SSW,209,1.0,4.0,93,0.00,,,0.00,92.000000,,2013-06-13 12:52:00,
2013-06-13 08:01:00,76.0,74.0,-100.00,SSW,209,1.0,4.0,93,0.00,,,0.00,92.000000,,2013-06-13 13:01:00,
2013-06-13 08:11:00,76.0,74.0,-100.00,SSW,209,1.0,4.0,93,0.00,,,0.00,92.000000,,2013-06-13 13:11:00,
2013-06-13 08:22:00,76.0,74.0,-100.00,SSW,209,1.0,4.0,93,0.00,,,0.00,92.000000,,2013-06-13 13:22:00,
2013-06-13 08:32:00,80.0,74.0,-100.00,West,266,6.0,10.0,82,0.00,,,0.00,270.000000,,2013-06-13 13:32:00,
2013-06-13 08:53:00,80.0,74.0,-100.00,West,266,6.0,10.0,82,0.00,,,0.00,270.000000,,2013-06-13 13:53:00,
2013-06-13 09:02:00,80.0,74.0,-100.00,West,266,6.0,10.0,82,0.00,,,0.00,270.000000,,2013-06-13 14:02:00,
2013-06-13 09:11:00,80.0,74.0,-100.00,West,266,6.0,10.0,82,0.00,,,0.00,270.000000,,2013-06-13 14:11:00,
2013-06-13 09:22:00,80.0,74.0,-100.00,West,266,6.0,10.0,82,0.00,,,0.00,270.000000,,2013-06-13 14:22:00,
2013-06-13 09:32:00,84.0,74.0,-100.00,WSW,258,7.0,12.0,71,0.00,,,0.00,545.000000,,2013-06-13 14:32:00,
2013-06-13 09:53:00,84.0,74.0,-100.00,WSW,258,7.0,12.0,71,0.00,,,0.00,545.000000,,2013-06-13 14:53:00,
2013-06-13 10:02:00,84.0,74.0,-100.00,WSW,258,7.0,12.0,71,0.00,,,0.00,545.000000,,2013-06-13 15:02:00,
2013-06-13 10:12:00,84.0,74.0,-100.00,WSW,258,7.0,12.0,71,0.00,,,0.00,545.000000,,2013-06-13 15:12:00,
2013-06-13 10:22:00,84.0,74.0,-100.00,WSW,258,7.0,12.0,71,0.00,,,0.00,545.000000,,2013-06-13 15:22:00,
2013-06-13 10:32:00,86.0,72.0,-100.00,West,275,7.0,14.0,63,0.00,,,0.00,692.000000,,2013-06-13 15:32:00,
2013-06-13 10:53:00,86.0,72.0,-100.00,West,275,7.0,14.0,63,0.00,,,0.00,692.000000,,2013-06-13 15:53:00,
2013-06-13 11:02:00,86.0,72.0,-100.00,West,275,7.0,14.0,63,0.00,,,0.00,692.000000,,2013-06-13 16:02:00,
2013-06-13 11:12:00,86.0,72.0,-100.00,West,275,7.0,14.0,63,0.00,,,0.00,692.000000,,2013-06-13 16:12:00,
2013-06-13 11:22:00,86.0,72.0,-100.00,West,275,7.0,14.0,63,0.00,,,0.00,692.000000,,2013-06-13 16:22:00,
2013-06-13 11:32:00,87.0,71.0,-100.00,WNW,282,6.0,12.0,59,0.00,,,0.00,732.000000,,2013-06-13 16:32:00,
2013-06-13 11:53:00,87.0,71.0,-100.00,WNW,282,6.0,12.0,59,0.00,,,0.00,732.000000,,2013-06-13 16:53:00,
2013-06-13 12:02:00,87.0,71.0,-100.00,WNW,282,6.0,12.0,59,0.00,,,0.00,732.000000,,2013-06-13 17:02:00,
2013-06-13 12:11:00,87.0,71.0,-100.00,WNW,282,6.0,12.0,59,0.00,,,0.00,732.000000,,2013-06-13 17:11:00,
2013-06-13 12:24:00,87.0,71.0,-100.00,WNW,282,6.0,12.0,59,0.00,,,0.00,732.000000,,2013-06-13 17:24:00,
2013-06-13 12:32:00,89.0,71.0,-100.00,West,273,5.0,14.0,55,0.00,,,0.00,846.000000,,2013-06-13 17:32:00,
2013-06-13 12:53:00,89.0,71.0,-100.00,West,273,5.0,14.0,55,0.00,,,0.00,846.000000,,2013-06-13 17:53:00,
2013-06-13 13:02:00,89.0,71.0,-100.00,West,273,5.0,14.0,55,0.00,,,0.00,846.000000,,2013-06-13 18:02:00,
2013-06-13 13:11:00,89.0,71.0,-100.00,West,273,5.0,14.0,55,0.00,,,0.00,846.000000,,2013-06-13 18:11:00,
2013-06-13 13:22:00,89.0,71.0,-100.00,West,273,5.0,14.0,55,0.00,,,0.00,846.000000,,2013-06-13 18:22:00,
2013-06-13 13:32:00,92.0,69.0,-100.00,WSW,258,4.0,12.0,48,0.00,,,0.00,897.000000,,2013-06-13 18:32:00,
2013-06-13 13:52:00,92.0,69.0,-100.00,WSW,258,4.0,12.0,48,0.00,,,0.00,897.000000,,2013-06-13 18:52:00,
2013-06-13 14:01:00,92.0,69.0,-100.00,WSW,258,4.0,12.0,48,0.00,,,0.00,897.000000,,2013-06-13 19:01:00,
2013-06-13 14:11:00,92.0,69.0,-100.00,WSW,258,4.0,12.0,48,0.00,,,0.00,897.000000,,2013-06-13 19:11:00,
2013-06-13 14:22:00,92.0,69.0,-100.00,WSW,258,4.0,12.0,48,0.00,,,0.00,897.000000,,2013-06-13 19:22:00,
2013-06-13 14:32:00,92.0,69.0,-100.00,West,273,5.0,13.0,48,0.00,,,0.00,875.000000,,2013-06-13 19:32:00,
2013-06-13 14:53:00,92.0,69.0,-100.00,West,273,5.0,13.0,48,0.00,,,0.00,875.000000,,2013-06-13 19:53:00,
2013-06-13 15:02:00,92.0,69.0,-100.00,West,273,5.0,13.0,48,0.00,,,0.00,875.000000,,2013-06-13 20:02:00,
2013-06-13 15:11:00,92.0,69.0,-100.00,West,273,5.0,13.0,48,0.00,,,0.00,875.000000,,2013-06-13 20:11:00,
2013-06-13 15:22:00,92.0,69.0,-100.00,West,273,5.0,13.0,48,0.00,,,0.00,875.000000,,2013-06-13 20:22:00,
2013-06-13 15:32:00,93.0,70.0,-100.00,West,279,5.0,12.0,47,0.00,,,0.00,859.000000,,2013-06-13 20:32:00,
2013-06-13 15:53:00,93.0,70.0,-100.00,West,279,5.0,12.0,47,0.00,,,0.00,859.000000,,2013-06-13 20:53:00,
2013-06-13 16:02:00,93.0,70.0,-100.00,West,279,5.0,12.0,47,0.00,,,0.00,859.000000,,2013-06-13 21:02:00,
2013-06-13 16:11:00,93.0,70.0,-100.00,West,279,5.0,12.0,47,0.00,,,0.00,859.000000,,2013-06-13 21:11:00,
2013-06-13 16:22:00,93.0,70.0,-100.00,West,279,5.0,12.0,47,0.00,,,0.00,859.000000,,2013-06-13 21:22:00,
2013-06-13 16:32:00,94.0,69.0,-100.00,WNW,284,4.0,11.0,45,0.00,,,0.00,647.000000,,2013-06-13 21:32:00,
2013-06-13 16:52:00,94.0,69.0,-100.00,WNW,284,4.0,11.0,45,0.00,,,0.00,647.000000,,2013-06-13 21:52:00,
2013-06-13 17:02:00,94.0,69.0,-100.00,WNW,284,4.0,11.0,45,0.00,,,0.00,647.000000,,2013-06-13 22:02:00,
2013-06-13 17:11:00,94.0,69.0,-100.00,WNW,284,4.0,11.0,45,0.00,,,0.00,647.000000,,2013-06-13 22:11:00,
2013-06-13 17:22:00,94.0,69.0,-100.00,WNW,284,4.0,11.0,45,0.00,,,0.00,647.000000,,2013-06-13 22:22:00,
2013-06-13 17:32:00,94.0,69.0,-100.00,West,281,5.0,9.0,44,0.00,,,0.00,542.000000,,2013-06-13 22:32:00,
2013-06-13 17:52:00,94.0,69.0,-100.00,West,281,5.0,9.0,44,0.00,,,0.00,542.000000,,2013-06-13 22:52:00,
2013-06-13 18:02:00,94.0,69.0,-100.00,West,281,5.0,9.0,44,0.00,,,0.00,542.000000,,2013-06-13 23:02:00,
2013-06-13 18:11:00,94.0,69.0,-100.00,West,281,5.0,9.0,44,0.00,,,0.00,542.000000,,2013-06-13 23:11:00,
2013-06-13 18:22:00,94.0,69.0,-100.00,West,281,5.0,9.0,44,0.00,,,0.00,542.000000,,2013-06-13 23:22:00,
2013-06-13 18:32:00,93.0,70.0,-100.00,WNW,294,3.0,9.0,47,0.00,,,0.00,350.000000,,2013-06-13 23:32:00,
2013-06-13 18:52:00,93.0,70.0,-100.00,WNW,294,3.0,9.0,47,0.00,,,0.00,350.000000,,2013-06-13 23:52:00,
2013-06-13 19:01:00,93.0,70.0,-100.00,WNW,294,3.0,9.0,47,0.00,,,0.00,350.000000,,2013-06-14 00:01:00,
2013-06-13 19:12:00,93.0,70.0,-100.00,WNW,294,3.0,9.0,47,0.00,,,0.00,350.000000,,2013-06-14 00:12:00,
2013-06-13 19:22:00,93.0,70.0,-100.00,WNW,294,3.0,9.0,47,0.00,,,0.00,350.000000,,2013-06-14 00:22:00,
2013-06-13 19:32:00,91.0,72.0,-100.00,NW,306,1.0,5.0,54,0.00,,,0.00,164.000000,,2013-06-14 00:32:00,
2013-06-13 19:53:00,91.0,72.0,-100.00,NW,306,1.0,5.0,54,0.00,,,0.00,164.000000,,2013-06-14 00:53:00,
2013-06-13 20:01:00,91.0,72.0,-100.00,NW,306,1.0,5.0,54,0.00,,,0.00,164.000000,,2013-06-14 01:01:00,
2013-06-13 20:11:00,91.0,72.0,-100.00,NW,306,1.0,5.0,54,0.00,,,0.00,164.000000,,2013-06-14 01:11:00,
2013-06-13 20:22:00,91.0,72.0,-100.00,NW,306,1.0,5.0,54,0.00,,,0.00,164.000000,,2013-06-14 01:22:00,
2013-06-13 20:32:00,83.0,76.0,-100.00,South,191,0.0,2.0,79,0.00,,,0.00,16.000000,,2013-06-14 01:32:00,
2013-06-13 20:53:00,83.0,76.0,-100.00,South,191,0.0,2.0,79,0.00,,,0.00,16.000000,,2013-06-14 01:53:00,
2013-06-13 21:02:00,83.0,76.0,-100.00,South,191,0.0,2.0,79,0.00,,,0.00,16.000000,,2013-06-14 02:02:00,
2013-06-13 21:11:00,83.0,76.0,-100.00,South,191,0.0,2.0,79,0.00,,,0.00,16.000000,,2013-06-14 02:11:00,
2013-06-13 21:22:00,83.0,76.0,-100.00,South,191,0.0,2.0,79,0.00,,,0.00,16.000000,,2013-06-14 02:22:00,
2013-06-13 21:32:00,79.0,74.0,-100.00,SSW,197,0.0,0.0,85,0.00,,,0.00,0.000000,,2013-06-14 02:32:00,
2013-06-13 21:53:00,79.0,74.0,-100.00,SSW,197,0.0,0.0,85,0.00,,,0.00,0.000000,,2013-06-14 02:53:00,
2013-06-13 22:02:00,79.0,74.0,-100.00,SSW,197,0.0,0.0,85,0.00,,,0.00,0.000000,,2013-06-14 03:02:00,
2013-06-13 22:12:00,79.0,74.0,-100.00,SSW,197,0.0,0.0,85,0.00,,,0.00,0.000000,,2013-06-14 03:12:00,
2013-06-13 22:22:00,79.0,74.0,-100.00,SSW,197,0.0,0.0,85,0.00,,,0.00,0.000000,,2013-06-14 03:22:00,
2013-06-13 22:32:00,77.0,74.0,-100.00,SW,228,0.0,0.0,89,0.00,,,0.00,0.000000,,2013-06-14 03:32:00,
2013-06-13 22:53:00,77.0,74.0,-100.00,SW,228,0.0,0.0,89,0.00,,,0.00,0.000000,,2013-06-14 03:53:00,
2013-06-13 23:01:00,77.0,74.0,-100.00,SW,228,0.0,0.0,89,0.00,,,0.00,0.000000,,2013-06-14 04:01:00,
2013-06-13 23:12:00,77.0,74.0,-100.00,SW,228,0.0,0.0,89,0.00,,,0.00,0.000000,,2013-06-14 04:12:00,
2013-06-13 23:22:00,77.0,74.0,-100.00,SW,228,0.0,0.0,89,0.00,,,0.00,0.000000,,2013-06-14 04:22:00,
2013-06-13 23:32:00,76.0,73.0,-100.00,WSW,249,0.0,2.0,91,0.00,,,0.00,0.000000,,2013-06-14 04:32:00,
2013-06-13 23:53:00,76.0,73.0,-100.00,WSW,249,0.0,2.0,91,0.00,,,0.00,0.000000,,2013-06-14 04:53:00,